Regional Weather Roundup
Issued by NWS

Home | Current Version | Previous Version | Text Only | Print | Product List | Glossary Off
Versions: 1 2 3 4 5 6 7 8 9 10 11 12 13 14 15 16 17 18 19 20 21 22 23 24 25 26 27 28 29 30 31 32 33 34 35 36 37 38 39 40 41 42 43 44 45 46 47 48 49 50

000
ASUS43 KBIS 231710
RWRND

NORTH DAKOTA REGIONAL WEATHER ROUNDUP
NATIONAL WEATHER SERVICE BISMARCK ND
1100 AM CST TUE JAN 23 2018

NOTE: "FAIR" INDICATES FEW OR NO CLOUDS BELOW 12,000 FEET WITH NO
SIGNIFICANT WEATHER AND/OR OBSTRUCTIONS TO VISIBILITY.


NDZ001>003-009>011-017-231800-
NORTHWEST NORTH DAKOTA

CITY           SKY/WX    TMP DP  RH WIND       PRES   REMARKS
WILLISTON      SUNNY     20  14  77 SW8       30.12R WCI  10
MINOT          CLOUDY    19  15  84 NW15      30.07R FOG     WCI   5
MINOT AFB      CLOUDY    18  16  93 NW15      30.07R WCI   3
$$

NDZ018>021-031>035-040>046-231800-
SOUTHWEST NORTH DAKOTA

CITY           SKY/WX    TMP DP  RH WIND       PRES   REMARKS
BISMARCK       MOSUNNY   21  18  88 CALM      30.10R
DICKINSON      MOSUNNY   29  20  69 W15       30.07R WCI  18
GARRISON         N/A     24  21  88 NW9       30.07R WCI  14
HETTINGER ARPT PTSUNNY   30  20  66 W18       30.10R WCI  18
$$

NDZ004>008-012>016-024-026-027-054-231800-
NORTHEAST NORTH DAKOTA

CITY           SKY/WX    TMP DP  RH WIND       PRES   REMARKS
GRAND FORKS    FLURRIES  22  18  85 SW12      30.09S WCI  10
GRND FRKS AFB  CLOUDY    21  18  88 SW6       30.08S WCI  13
DEVILS LAKE    CLOUDY    19  17  92 W9        30.05R FOG     WCI   8
$$

NDZ022-023-025-028>030-036>039-047>053-231800-
SOUTHEAST NORTH DAKOTA

CITY           SKY/WX    TMP DP  RH WIND       PRES   REMARKS
FARGO          CLOUDY    21  17  84 CALM      30.12R
JAMESTOWN      CLOUDY    21  19  92 W6        30.05R WCI  13
$$




USA.gov is the U.S. government's official web portal to all federal, state and local government web resources and services.